Grand Junction, CO

1:01 AM MST on December 09, 2019 (GMT -0700)
Walker

Weather History for KGJT - November, 2019

Change the Weather History Date:

Thursday, November 14, 2019

  Actual Average Record
Temperature  
Mean Temperature 42 °F 40 °F  
Max Temperature 59 °F 51 °F 72 °F (1903)
Min Temperature 24 °F 28 °F 8 °F (1916)
Degree Days  
Heating Degree Days 23 25  
Month to date heating degree days 334 308  
Since 1 July heating degree days 938 756  
Cooling Degree Days 0 0  
Month to date cooling degree days 0 0  
Year to date cooling degree days 1287 1125  
Moisture  
Dew Point 15 °F    
Average Humidity 36    
Maximum Humidity 50    
Minimum Humidity 21    
Precipitation  
Precipitation 0.00 in 0.02 in 0.53 in (1987)
Month to date precipitation 0.00 0.37  
Year to date precipitation 7.14 8.47  
Snow  
Snow 0.00 in 0.00 in 0.70 in (1957)
Month to date snowfall 0.0 0.6  
Since 1 July snowfall 0.2 1.0  
Since 1 September snowfall 0.2 1.0  
Snow Depth 0.00 in    
Sea Level Pressure  
Sea Level Pressure 30.24 in    
Wind  
Wind Speed 5 mph (ESE)    
Max Wind Speed 15 mph    
Max Gust Speed 18 mph    
Visibility 10 miles    
Events      
T = Trace of Precipitation, MM = Missing Value Source: NWS Daily Summary

Daily Weather History Graph

Daily Weather History Graph

Search for Another Location

Airport or City:

Astronomy

Nov. 14, 2019 Rise Set
Actual Time 6:55 AM MST 5:00 PM MST
Civil Twilight 6:27 AM MST 5:29 PM MST
Nautical Twilight 5:55 AM MST 6:01 PM MST
Astronomical Twilight 5:23 AM MST 6:33 PM MST
Moon 6:49 PM MST (11/14) 8:54 AM MST (11/14)
Length of Visible Light 11h 01m
Length of Day
10h 04m
Waning Gibbous, 95% of the Moon is Illuminated
Nov 14
Waning Gibbous
Nov 19
Last Quarter
Nov 26
New
Dec 3
First Quarter
Dec 11
Full

Hourly Weather History & Observations

Time (MST) Temp. Windchill Dew Point Humidity Pressure Visibility Wind Dir Wind Speed Gust Speed Precip Events Conditions
12:53 AM 34.0 °F - 9.0 °F 35% 30.15 in 10.0 mi Calm Calm - N/A   Clear
1:53 AM 33.1 °F - 10.0 °F 38% 30.16 in 10.0 mi Calm Calm - N/A   Clear
2:53 AM 27.0 °F 23.0 °F 8.1 °F 45% 30.19 in 10.0 mi East 3.5 mph - N/A   Clear
3:53 AM 27.0 °F 23.0 °F 9.0 °F 47% 30.21 in 10.0 mi ENE 3.5 mph - N/A   Clear
5:53 AM 27.0 °F 21.6 °F 10.0 °F 49% 30.26 in 10.0 mi East 4.6 mph - N/A   Clear
6:53 AM 28.0 °F 21.7 °F 12.0 °F 51% 30.32 in 10.0 mi ESE 5.8 mph - N/A   Clear
7:53 AM 34.0 °F 28.0 °F 15.1 °F 46% 30.30 in 10.0 mi SSE 6.9 mph - N/A   Clear
8:53 AM 41.0 °F 34.3 °F 17.1 °F 38% 30.32 in 10.0 mi SE 11.5 mph - N/A   Clear
9:53 AM 46.9 °F - 18.0 °F 32% 30.30 in 10.0 mi SSE 10.4 mph - N/A   Clear
10:53 AM 50.0 °F - 17.1 °F 27% 30.28 in 10.0 mi SSE 11.5 mph - N/A   Clear
11:53 AM 53.1 °F - 17.1 °F 24% 30.24 in 10.0 mi SE 5.8 mph - N/A   Clear
12:53 PM 55.9 °F - 17.1 °F 22% 30.21 in 10.0 mi Variable 4.6 mph - N/A   Clear
1:53 PM 57.0 °F - 17.1 °F 21% 30.19 in 10.0 mi Calm Calm - N/A   Clear
2:53 PM 57.0 °F - 18.0 °F 22% 30.20 in 10.0 mi Calm Calm - N/A   Clear
3:53 PM 57.0 °F - 18.0 °F 22% 30.20 in 10.0 mi West 4.6 mph - N/A   Clear
4:53 PM 53.1 °F - 19.0 °F 26% 30.22 in 10.0 mi WNW 4.6 mph - N/A   Clear
5:53 PM 45.0 °F - 16.0 °F 31% 30.26 in 10.0 mi Calm Calm - N/A   Clear
6:53 PM 39.9 °F - 12.9 °F 33% 30.29 in 10.0 mi Calm Calm - N/A   Clear
7:53 PM 42.1 °F 38.4 °F 15.1 °F 34% 30.27 in 10.0 mi ENE 5.8 mph - N/A   Clear
9:53 PM 42.1 °F 38.4 °F 16.0 °F 35% 30.24 in 10.0 mi East 5.8 mph - N/A   Clear
10:53 PM 39.0 °F 34.8 °F 15.1 °F 38% 30.24 in 10.0 mi East 5.8 mph - N/A   Clear
11:53 PM 39.9 °F 34.5 °F 16.0 °F 38% 30.23 in 10.0 mi ESE 8.1 mph - N/A   Clear